�������l�o���
Date,Time,MP-1(��Sv/h),MP-2(��Sv/h),MP-3(��Sv/h),MP-4(��Sv/h),MP-5(��Sv/h),MP-6(��Sv/h),MP-7(��Sv/h),MP-8(��Sv/h),����,����(m/s),���J
2022/08/24,00:00,0.610,0.857,0.543,1.041,0.748,0.346,0.599,0.562,���쐼,5.0,��
2022/08/24,00:10,0.610,0.860,0.543,1.041,0.748,0.345,0.598,0.562,���쐼,4.1,��
2022/08/24,00:20,0.608,0.857,0.544,1.041,0.749,0.347,0.598,0.561,��,1.7,��
2022/08/24,00:30,0.609,0.860,0.543,1.041,0.747,0.346,0.598,0.560,�k,0.6,��
2022/08/24,00:40,0.609,0.859,0.543,1.042,0.748,0.346,0.599,0.562,�k�k��,1.4,��
2022/08/24,00:50,0.608,0.857,0.543,1.043,0.747,0.347,0.597,0.561,-,CALM,��
2022/08/24,01:00,0.609,0.861,0.543,1.041,0.748,0.348,0.598,0.561,�k�k��,1.7,��
2022/08/24,01:10,0.609,0.861,0.543,1.041,0.748,0.345,0.598,0.563,�k,2.0,��
2022/08/24,01:20,0.609,0.858,0.542,1.040,0.748,0.347,0.599,0.561,�k�k��,0.9,��
2022/08/24,01:30,0.610,0.858,0.542,1.042,0.748,0.346,0.599,0.560,�k�k��,1.7,��
2022/08/24,01:40,0.610,0.860,0.545,1.042,0.749,0.345,0.598,0.564,�k�k��,2.8,�L
2022/08/24,01:50,0.608,0.861,0.540,1.042,0.747,0.346,0.598,0.561,�k��,4.2,�L
2022/08/24,02:00,0.609,0.860,0.541,1.042,0.747,0.345,0.601,0.561,�k��,4.2,��
2022/08/24,02:10,0.608,0.858,0.542,1.043,0.748,0.346,0.599,0.561,���k��,5.0,��
2022/08/24,02:20,0.607,0.860,0.543,1.041,0.749,0.346,0.599,0.561,���k��,5.7,��
2022/08/24,02:30,0.607,0.859,0.542,1.043,0.747,0.346,0.599,0.562,���k��,4.7,�L
2022/08/24,02:40,0.609,0.858,0.542,1.042,0.747,0.346,0.598,0.561,�k��,3.3,�L
2022/08/24,02:50,0.609,0.859,0.544,1.043,0.750,0.346,0.600,0.563,�k�k��,2.6,��
2022/08/24,03:00,0.609,0.859,0.544,1.041,0.748,0.347,0.598,0.563,�k�k��,2.3,��
2022/08/24,03:10,0.609,0.857,0.542,1.043,0.749,0.346,0.598,0.561,�k,3.2,��
2022/08/24,03:20,0.609,0.857,0.542,1.043,0.747,0.345,0.600,0.563,�k��,3.4,��
2022/08/24,03:30,0.609,0.858,0.543,1.043,0.748,0.348,0.598,0.562,�k�k��,3.1,��
2022/08/24,03:40,0.607,0.857,0.543,1.044,0.749,0.346,0.599,0.562,�k�k��,3.1,��
2022/08/24,03:50,0.607,0.857,0.543,1.043,0.746,0.347,0.598,0.561,�k,2.2,��
2022/08/24,04:00,0.609,0.856,0.542,1.042,0.748,0.347,0.598,0.561,�k�k��,1.7,��
2022/08/24,04:10,0.608,0.855,0.542,1.042,0.748,0.346,0.598,0.561,�k�k��,1.5,��
2022/08/24,04:20,0.606,0.858,0.542,1.041,0.748,0.346,0.599,0.562,�k�k��,1.5,��
2022/08/24,04:30,0.607,0.855,0.541,1.041,0.748,0.345,0.600,0.562,�k,2.3,��
2022/08/24,04:40,0.607,0.855,0.542,1.043,0.746,0.345,0.598,0.563,�k�k��,2.3,��
2022/08/24,04:50,0.607,0.854,0.541,1.042,0.746,0.344,0.597,0.562,�k�k��,2.3,��
2022/08/24,05:00,0.608,0.856,0.541,1.043,0.746,0.346,0.599,0.561,�k�k��,1.5,��
2022/08/24,05:10,0.607,0.855,0.540,1.043,0.744,0.346,0.597,0.561,�k�k��,2.8,��
2022/08/24,05:20,0.606,0.855,0.542,1.041,0.746,0.344,0.598,0.561,�k,2.5,��
2022/08/24,05:30,0.606,0.856,0.540,1.043,0.747,0.345,0.598,0.561,�k,3.9,��
2022/08/24,05:40,0.606,0.855,0.539,1.043,0.748,0.344,0.596,0.561,�k,3.1,��
2022/08/24,05:50,0.607,0.855,0.542,1.043,0.746,0.344,0.598,0.560,�k,4.7,��
2022/08/24,06:00,0.604,0.853,0.542,1.043,0.746,0.345,0.599,0.561,�k,5.8,��
2022/08/24,06:10,0.606,0.857,0.542,1.042,0.746,0.344,0.596,0.561,�k,4.5,��
2022/08/24,06:20,0.607,0.854,0.539,1.040,0.747,0.344,0.598,0.561,�k,4.5,��
2022/08/24,06:30,0.607,0.855,0.541,1.042,0.746,0.345,0.597,0.562,�k,3.9,��
2022/08/24,06:40,0.606,0.855,0.540,1.043,0.747,0.343,0.597,0.560,�k,3.3,��
2022/08/24,06:50,0.605,0.855,0.540,1.040,0.745,0.345,0.596,0.560,�k,4.2,��
2022/08/24,07:00,0.605,0.857,0.540,1.041,0.746,0.344,0.597,0.563,�k,5.0,��
2022/08/24,07:10,0.604,0.856,0.540,1.040,0.746,0.344,0.596,0.561,�k�k��,3.8,��
2022/08/24,07:20,0.606,0.856,0.541,1.041,0.744,0.343,0.598,0.562,�k,4.8,��
2022/08/24,07:30,0.604,0.853,0.538,1.040,0.744,0.343,0.596,0.562,�k,5.0,��
2022/08/24,07:40,0.605,0.854,0.540,1.043,0.746,0.343,0.598,0.562,�k,4.9,��
2022/08/24,07:50,0.605,0.854,0.540,1.041,0.745,0.344,0.597,0.562,�k�k��,5.6,��
2022/08/24,08:00,0.607,0.856,0.539,1.042,0.746,0.341,0.597,0.561,�k,5.8,��
2022/08/24,08:10,0.603,0.858,0.539,1.043,0.748,0.342,0.595,0.562,�k�k��,6.9,��
2022/08/24,08:20,0.606,0.854,0.539,1.042,0.747,0.344,0.598,0.564,�k�k��,6.8,��
2022/08/24,08:30,0.606,0.854,0.541,1.044,0.747,0.343,0.597,0.561,�k,8.0,��
2022/08/24,08:40,0.607,0.854,0.541,1.043,0.746,0.344,0.597,0.561,�k,7.3,��
2022/08/24,08:50,0.605,0.856,0.540,1.043,0.747,0.343,0.597,0.560,�k�k��,6.0,��
2022/08/24,09:00,0.607,0.853,0.540,1.042,0.748,0.343,0.598,0.557,�k�k��,6.6,��
2022/08/24,09:10,0.606,0.854,0.539,1.043,0.747,0.344,0.599,0.560,�k�k��,6.2,��
2022/08/24,09:20,0.606,0.853,0.541,1.042,0.746,0.343,0.598,0.559,�k,6.4,��
2022/08/24,09:30,0.605,0.856,0.540,1.043,0.747,0.343,0.599,0.560,�k,5.8,��
2022/08/24,09:40,0.606,0.856,0.539,1.043,0.746,0.342,0.598,0.559,�k�k��,5.3,��
2022/08/24,09:50,0.605,0.855,0.541,1.043,0.747,0.342,0.597,0.560,�k,5.3,��
2022/08/24,10:00,0.607,0.854,0.539,1.043,0.749,0.344,0.597,0.559,�k�k��,4.5,��
2022/08/24,10:10,0.607,0.856,0.541,1.044,0.746,0.343,0.596,0.560,�k�k��,4.2,��
2022/08/24,10:20,0.606,0.856,0.540,1.043,0.750,0.344,0.596,0.561,�k�k��,5.8,��
2022/08/24,10:30,0.606,0.854,0.540,1.046,0.749,0.342,0.595,0.560,�k�k��,7.2,��
2022/08/24,10:40,0.605,0.858,0.540,1.046,0.747,0.343,0.595,0.560,�k�k��,6.9,��
2022/08/24,10:50,0.607,0.858,0.541,1.044,0.747,0.344,0.597,0.559,�k�k��,8.5,��
2022/08/24,11:00,0.607,0.857,0.542,1.046,0.749,0.343,0.597,0.561,�k�k��,8.6,��
2022/08/24,11:10,0.607,0.858,0.541,1.044,0.749,0.343,0.598,0.560,�k�k��,8.0,��
2022/08/24,11:20,0.608,0.858,0.540,1.045,0.747,0.344,0.597,0.560,�k�k��,7.5,��
2022/08/24,11:30,0.608,0.858,0.540,1.044,0.748,0.344,0.596,0.561,�k�k��,7.3,��
2022/08/24,11:40,0.607,0.860,0.540,1.045,0.749,0.343,0.597,0.560,�k�k��,7.1,��
2022/08/24,11:50,0.609,0.860,0.540,1.048,0.750,0.343,0.597,0.562,�k,7.1,��
2022/08/24,12:00,0.607,0.860,0.540,1.044,0.751,0.344,0.597,0.562,�k�k��,7.3,��
2022/08/24,12:10,0.608,0.861,0.539,1.047,0.750,0.343,0.595,0.562,�k�k��,5.3,��
2022/08/24,12:20,0.608,0.862,0.540,1.046,0.749,0.343,0.598,0.562,�k,5.2,��
2022/08/24,12:30,0.607,0.861,0.540,1.045,0.749,0.343,0.598,0.561,�k�k��,5.5,��
2022/08/24,12:40,0.607,0.859,0.541,1.047,0.749,0.343,0.597,0.561,�k,5.6,��
2022/08/24,12:50,0.608,0.860,0.540,1.046,0.751,0.343,0.597,0.561,�k,4.9,��
2022/08/24,13:00,0.608,0.861,0.538,1.045,0.749,0.343,0.595,0.560,�k,4.7,��
2022/08/24,13:10,0.608,0.858,0.540,1.048,0.749,0.341,0.597,0.561,�k�k��,4.6,��
2022/08/24,13:20,0.606,0.857,0.540,1.046,0.749,0.343,0.597,0.560,�k�k��,4.5,�L
2022/08/24,13:30,0.605,0.861,0.541,1.047,0.749,0.343,0.596,0.559,�k,4.8,�L
2022/08/24,13:40,0.609,0.859,0.539,1.047,0.749,0.343,0.598,0.562,�k�k��,4.4,�L
2022/08/24,13:50,0.607,0.860,0.540,1.047,0.750,0.343,0.596,0.561,�k�k��,4.4,�L
2022/08/24,14:00,0.608,0.859,0.542,1.048,0.750,0.344,0.596,0.562,�k�k��,3.9,�L
2022/08/24,14:10,0.608,0.857,0.541,1.049,0.750,0.344,0.599,0.562,�k,3.7,�L
2022/08/24,14:20,0.608,0.862,0.540,1.047,0.750,0.344,0.598,0.563,�k�k��,3.9,�L
2022/08/24,14:30,0.609,0.861,0.542,1.048,0.752,0.345,0.600,0.562,�k,3.5,�L
2022/08/24,14:40,0.608,0.862,0.543,1.047,0.753,0.344,0.598,0.562,�k,3.0,�L
2022/08/24,14:50,0.610,0.861,0.543,1.050,0.752,0.346,0.598,0.563,�k�k��,3.5,��
2022/08/24,15:00,0.610,0.861,0.545,1.048,0.752,0.345,0.599,0.563,�k,3.9,��
2022/08/24,15:10,0.608,0.863,0.544,1.047,0.750,0.345,0.597,0.563,�k,3.9,��
2022/08/24,15:20,0.609,0.865,0.542,1.048,0.750,0.346,0.599,0.563,�k,3.0,�L
2022/08/24,15:30,0.610,0.864,0.542,1.049,0.753,0.345,0.598,0.561,�k,3.1,�L
2022/08/24,15:40,0.608,0.862,0.544,1.047,0.751,0.344,0.597,0.563,�k,2.5,��
2022/08/24,15:50,0.605,0.862,0.544,1.048,0.753,0.342,0.599,0.563,�k,3.4,��
2022/08/24,16:00,0.604,0.862,0.544,1.047,0.752,0.343,0.598,0.563,�k,3.0,��
2022/08/24,16:10,0.606,0.863,0.541,1.047,0.751,0.343,0.599,0.562,�k,3.3,��
2022/08/24,16:20,0.606,0.863,0.542,1.048,0.751,0.343,0.599,0.562,�k,3.1,��
2022/08/24,16:30,0.603,0.864,0.543,1.048,0.752,0.342,0.598,0.564,�k,3.5,��
2022/08/24,16:40,0.604,0.861,0.542,1.048,0.753,0.342,0.599,0.563,�k,3.2,��
2022/08/24,16:50,0.605,0.862,0.542,1.047,0.753,0.342,0.598,0.563,�k�k��,3.1,��
2022/08/24,17:00,0.605,0.863,0.542,1.047,0.750,0.343,0.600,0.563,�k�k��,3.1,��
2022/08/24,17:10,0.604,0.863,0.543,1.049,0.750,0.344,0.600,0.563,�k�k��,3.8,�L
2022/08/24,17:20,0.603,0.863,0.543,1.048,0.750,0.344,0.599,0.563,�k,3.9,��
2022/08/24,17:30,0.604,0.863,0.543,1.046,0.751,0.344,0.599,0.562,�k,3.2,��
2022/08/24,17:40,0.605,0.864,0.542,1.047,0.749,0.344,0.597,0.563,�k,3.2,��
2022/08/24,17:50,0.605,0.864,0.544,1.049,0.753,0.344,0.598,0.562,�k,3.4,��
2022/08/24,18:00,0.607,0.863,0.541,1.048,0.752,0.344,0.599,0.561,�k,2.9,��
2022/08/24,18:10,0.606,0.864,0.543,1.048,0.751,0.343,0.599,0.564,�k,3.1,��
2022/08/24,18:20,0.606,0.864,0.543,1.047,0.750,0.344,0.598,0.562,�k,3.4,��
2022/08/24,18:30,0.607,0.862,0.542,1.048,0.748,0.343,0.598,0.563,�k,3.0,��
2022/08/24,18:40,0.613,0.864,0.540,1.046,0.750,0.343,0.597,0.562,�k,3.2,��
2022/08/24,18:50,0.613,0.865,0.542,1.048,0.751,0.344,0.599,0.563,�k,2.3,��
2022/08/24,19:00,0.612,0.865,0.543,1.047,0.751,0.344,0.599,0.562,�k,2.3,��
2022/08/24,19:10,0.612,0.865,0.543,1.050,0.751,0.342,0.599,0.562,�k�k��,2.2,��
2022/08/24,19:20,0.612,0.863,0.542,1.049,0.750,0.344,0.598,0.562,�k�k��,1.5,��
2022/08/24,19:30,0.613,0.864,0.542,1.046,0.751,0.343,0.598,0.563,�k�k��,1.2,��
2022/08/24,19:40,0.612,0.863,0.542,1.046,0.751,0.342,0.597,0.563,�k�k��,2.3,��
2022/08/24,19:50,0.613,0.866,0.541,1.048,0.751,0.342,0.597,0.562,�k,1.9,��
2022/08/24,20:00,0.610,0.863,0.541,1.049,0.751,0.343,0.599,0.562,�k�k��,1.9,��
2022/08/24,20:10,0.610,0.862,0.542,1.047,0.751,0.343,0.595,0.563,�k�k��,1.5,��
2022/08/24,20:20,0.612,0.863,0.541,1.046,0.750,0.344,0.598,0.564,�k�k��,2.0,��
2022/08/24,20:30,0.610,0.863,0.543,1.048,0.753,0.343,0.597,0.561,�k�k��,1.4,��
2022/08/24,20:40,0.609,0.864,0.543,1.046,0.750,0.343,0.598,0.562,�k�k��,1.7,��
2022/08/24,20:50,0.609,0.864,0.542,1.046,0.752,0.343,0.598,0.562,�k�k��,1.2,��
2022/08/24,21:00,0.609,0.865,0.542,1.048,0.750,0.343,0.597,0.563,�k��,0.9,��
2022/08/24,21:10,0.610,0.865,0.543,1.048,0.752,0.345,0.599,0.564,�k��,1.1,��
2022/08/24,21:20,0.610,0.864,0.542,1.046,0.753,0.344,0.598,0.564,�k��,0.8,��
2022/08/24,21:30,0.610,0.862,0.543,1.048,0.750,0.343,0.597,0.563,�k��,0.9,��
2022/08/24,21:40,0.608,0.862,0.543,1.050,0.751,0.344,0.598,0.562,�k��,1.7,��
2022/08/24,21:50,0.610,0.862,0.542,1.048,0.750,0.343,0.597,0.564,�k�k��,0.9,��
2022/08/24,22:00,0.608,0.864,0.541,1.051,0.752,0.344,0.599,0.563,�k,1.2,��
2022/08/24,22:10,0.609,0.864,0.543,1.049,0.752,0.345,0.599,0.561,�k�k��,1.4,��
2022/08/24,22:20,0.609,0.865,0.542,1.047,0.752,0.343,0.599,0.563,�k�k��,1.5,��
2022/08/24,22:30,0.608,0.865,0.543,1.046,0.752,0.343,0.600,0.562,�k��,1.5,��
2022/08/24,22:40,0.610,0.865,0.543,1.048,0.750,0.344,0.600,0.563,�k�k��,2.6,��
2022/08/24,22:50,0.609,0.863,0.542,1.048,0.751,0.345,0.599,0.562,�k��,3.0,��
2022/08/24,23:00,0.610,0.865,0.543,1.048,0.751,0.343,0.598,0.561,�k��,1.4,��
2022/08/24,23:10,0.611,0.864,0.544,1.048,0.751,0.344,0.597,0.562,�k�k��,0.8,��
2022/08/24,23:20,0.609,0.863,0.542,1.050,0.751,0.345,0.598,0.563,�k�k��,1.2,��
2022/08/24,23:30,0.610,0.864,0.543,1.049,0.750,0.344,0.599,0.564,�k�k��,1.4,��
2022/08/24,23:40,0.611,0.867,0.542,1.048,0.753,0.343,0.599,0.562,�k,0.9,��
2022/08/24,23:50,0.610,0.864,0.542,1.049,0.752,0.345,0.600,0.562,�k��,1.5,��
